Date String (YYYY-MM-DD hh:mm:ss) UTC,Instrument flags,Ambient pressure (hPa),Sample flow (lpm),Bypass flow (lpm),Sample temperature (°C),Ambient temperature (°C),ASC tube jacket temperature (°C),LED temperature (°C),Box temperature (°C),Sample RH (%),Span deviation,Mass concentration (μg/m³),Mass concentration (μg/m³),Mass concentration (μg/m³)
DateTimeUTC,F1_M11,P_M11,Q1_M11,Q2_M11,T1_M11,T2_M11,T3_M11,T4_M11,T5_M11,U1_M11,ZSPAN_M11,X2_M11,X0_M11,X1_M11
2022-07-31 03:00:00,,0829.0,4.99,0.00,29.3,27.5,00.0,38.1,31.1,22.3,0000.0,0004.55,0007.87,0004.30
2022-07-31 03:01:00,,0829.1,5.00,0.00,29.3,27.7,00.0,38.1,31.2,22.4,0000.0,0004.46,0007.90,0004.22
2022-07-31 03:02:00,,0829.0,5.00,0.00,29.3,27.9,00.0,38.1,31.2,22.4,0000.0,0004.38,0007.82,0004.15
2022-07-31 03:03:00,,0829.0,4.99,0.00,29.3,28.0,00.0,38.1,31.3,22.5,0000.0,0004.31,0007.37,0004.08
2022-07-31 03:04:00,,0829.0,5.01,0.00,29.4,28.1,00.0,38.1,31.3,22.4,0000.0,0004.23,0006.71,0004.00
2022-07-31 03:05:00,,0829.0,4.99,0.00,29.4,28.3,00.0,38.1,31.4,22.6,0000.0,0004.18,0006.64,0003.93
2022-07-31 03:06:00,,0829.1,5.01,0.00,29.4,28.4,00.0,38.2,31.4,22.5,0000.0,0004.15,0006.77,0003.87
2022-07-31 03:07:00,,0829.1,4.99,0.00,29.5,28.5,00.0,38.2,31.5,22.4,0000.0,0004.10,0006.68,0003.81
2022-07-31 03:08:00,,0829.1,4.99,0.00,29.5,28.4,00.0,38.2,31.5,22.3,0000.0,0004.03,0006.48,0003.75
2022-07-31 03:09:00,,0829.0,5.01,0.00,29.5,27.8,00.0,38.2,31.3,22.1,0000.0,0004.02,0006.80,0003.72
2022-07-31 03:10:00,,0829.0,5.00,0.00,29.5,27.5,00.0,38.2,31.3,22.3,0000.0,0003.98,0007.15,0003.70
2022-07-31 03:11:00,,0829.1,5.00,0.00,29.4,27.5,00.0,38.1,31.2,22.2,0000.0,0003.98,0006.85,0003.70
2022-07-31 03:12:00,,0829.1,5.00,0.00,29.4,27.5,00.0,38.1,31.2,22.3,0000.0,0003.97,0006.58,0003.70
2022-07-31 03:13:00,,0829.1,5.00,0.00,29.4,27.7,00.0,38.1,31.2,22.4,0000.0,0003.99,0006.61,0003.70
2022-07-31 03:14:00,,0829.1,5.00,0.00,29.4,27.8,00.0,38.1,31.3,22.4,0000.0,0004.01,0009.19,0003.70
2022-07-31 03:15:00,,0829.1,5.00,0.00,29.4,28.0,00.0,38.2,31.3,22.5,0000.0,0004.00,0009.73,0003.71
2022-07-31 03:16:00,,0829.1,4.99,0.00,29.4,28.1,00.0,38.2,31.4,22.3,0000.0,0003.97,0009.63,0003.71
2022-07-31 03:17:00,,0829.1,5.00,0.00,29.5,28.2,00.0,38.2,31.4,22.3,0000.0,0003.96,0009.57,0003.72
2022-07-31 03:18:00,,0829.1,4.99,0.00,29.5,28.3,00.0,38.2,31.5,22.3,0000.0,0003.98,0009.61,0003.72
2022-07-31 03:19:00,,0829.1,5.01,0.00,29.5,28.4,00.0,38.2,31.5,22.3,0000.0,0003.99,0010.03,0003.73
2022-07-31 03:20:00,,0829.1,5.01,0.00,29.6,28.5,00.0,38.3,31.5,22.3,0000.0,0003.97,0010.03,0003.73
2022-07-31 03:21:00,,0829.0,5.00,0.00,29.6,27.9,00.0,38.2,31.4,22.2,0000.0,0003.97,0009.70,0003.73
2022-07-31 03:22:00,,0829.1,4.99,0.00,29.5,27.1,00.0,38.2,31.2,22.4,0000.0,0003.96,0009.72,0003.72
2022-07-31 03:23:00,,0829.0,5.00,0.00,29.4,26.8,00.0,38.2,31.1,22.2,0000.0,0003.97,0009.78,0003.71
2022-07-31 03:24:00,,0829.0,5.00,0.00,29.3,26.9,00.0,38.1,31.0,22.5,0000.0,0003.95,0009.82,0003.70
2022-07-31 03:25:00,,0828.9,4.99,0.00,29.3,27.0,00.0,38.1,31.0,22.6,0000.0,0003.92,0008.13,0003.69
2022-07-31 03:26:00,,0828.9,5.00,0.00,29.3,27.2,00.0,38.1,31.1,22.4,0000.0,0003.87,0006.48,0003.67
2022-07-31 03:27:00,,0829.0,4.99,0.00,29.3,27.4,00.0,38.1,31.1,22.3,0000.0,0003.87,0006.56,0003.66
2022-07-31 03:28:00,,0829.1,5.00,0.00,29.3,27.6,00.0,38.1,31.2,22.5,0000.0,0003.85,0006.50,0003.64
2022-07-31 03:29:00,,0829.1,5.00,0.00,29.3,27.8,00.0,38.1,31.2,22.6,0000.0,0003.83,0006.40,0003.63
2022-07-31 03:30:00,,0829.0,5.00,0.00,29.3,27.9,00.0,38.1,31.2,22.8,0000.0,0003.84,0005.91,0003.63
2022-07-31 03:31:00,,0829.1,4.99,0.00,29.4,28.1,00.0,38.1,31.3,22.8,0000.0,0003.84,0005.40,0003.63
2022-07-31 03:32:00,,0829.1,5.00,0.00,29.4,28.2,00.0,38.1,31.3,22.7,0000.0,0003.82,0005.29,0003.63
2022-07-31 03:33:00,,0829.0,5.01,0.00,29.4,28.3,00.0,38.2,31.4,22.6,0000.0,0003.80,0005.11,0003.62
2022-07-31 03:34:00,,0829.1,4.99,0.00,29.5,28.4,00.0,38.2,31.4,22.7,0000.0,0003.80,0005.11,0003.62
2022-07-31 03:35:00,,0829.0,5.01,0.00,29.5,28.5,00.0,38.2,31.5,22.6,0000.0,0003.78,0004.90,0003.63
2022-07-31 03:36:00,,0829.1,4.99,0.00,29.5,28.6,00.0,38.2,31.5,22.7,0000.0,0003.78,0004.87,0003.62
2022-07-31 03:37:00,,0829.1,5.00,0.00,29.6,28.4,00.0,38.2,31.5,22.7,0000.0,0003.79,0005.00,0003.63
2022-07-31 03:38:00,,0829.1,5.00,0.00,29.5,27.8,00.0,38.2,31.3,22.5,0000.0,0003.80,0005.18,0003.64
2022-07-31 03:39:00,,0829.0,4.99,0.00,29.5,27.5,00.0,38.2,31.3,22.6,0000.0,0003.81,0005.21,0003.66
2022-07-31 03:40:00,,0829.1,5.00,0.00,29.4,27.5,00.0,38.2,31.2,22.7,0000.0,0003.81,0005.20,0003.66
2022-07-31 03:41:00,,0829.1,5.00,0.00,29.4,27.6,00.0,38.2,31.2,22.7,0000.0,0003.80,0005.19,0003.65
2022-07-31 03:42:00,,0829.0,5.00,0.00,29.4,27.7,00.0,38.2,31.2,22.7,0000.0,0003.82,0005.33,0003.65
2022-07-31 03:43:00,,0829.1,5.01,0.00,29.4,27.8,00.0,38.2,31.3,22.8,0000.0,0003.83,0005.39,0003.65
2022-07-31 03:44:00,,0829.1,4.99,0.00,29.4,28.0,00.0,38.2,31.3,22.9,0000.0,0003.86,0005.58,0003.66
2022-07-31 03:45:00,,0829.2,5.00,0.00,29.4,28.1,00.0,38.2,31.4,22.8,0000.0,0003.86,0005.52,0003.66
2022-07-31 03:46:00,,0829.2,5.01,0.00,29.5,28.2,00.0,38.2,31.4,22.7,0000.0,0003.88,0005.66,0003.67
2022-07-31 03:47:00,,0829.3,5.00,0.00,29.5,28.3,00.0,38.2,31.5,22.8,0000.0,0003.89,0005.71,0003.68
2022-07-31 03:48:00,,0829.2,4.99,0.00,29.5,28.4,00.0,38.3,31.5,22.5,0000.0,0003.92,0005.73,0003.69
2022-07-31 03:49:00,,0829.3,5.01,0.00,29.6,28.5,00.0,38.3,31.5,22.2,0000.0,0003.93,0005.55,0003.70
2022-07-31 03:50:00,,0829.3,5.00,0.00,29.6,28.3,00.0,38.3,31.5,22.4,0000.0,0003.96,0005.64,0003.72
2022-07-31 03:51:00,,0829.2,5.00,0.00,29.6,27.7,00.0,38.2,31.4,22.4,0000.0,0003.97,0005.68,0003.73
2022-07-31 03:52:00,,0829.3,5.00,0.00,29.5,27.5,00.0,38.2,31.3,22.2,0000.0,0003.97,0005.64,0003.75
2022-07-31 03:53:00,,0829.3,5.00,0.00,29.5,27.5,00.0,38.2,31.3,22.1,0000.0,0003.98,0005.55,0003.76
2022-07-31 03:54:00,,0829.2,5.00,0.00,29.5,27.6,00.0,38.2,31.3,22.1,0000.0,0003.99,0005.63,0003.78
2022-07-31 03:55:00,,0829.2,5.01,0.00,29.5,27.8,00.0,38.2,31.3,21.8,0000.0,0003.99,0005.64,0003.81
2022-07-31 03:56:00,,0829.3,5.00,0.00,29.5,27.9,00.0,38.2,31.3,21.8,0000.0,0004.02,0005.65,0003.84
2022-07-31 03:57:00,,0829.4,5.01,0.00,29.5,28.0,00.0,38.2,31.4,21.8,0000.0,0004.02,0005.66,0003.86
2022-07-31 03:58:00,,0829.4,5.01,0.00,29.5,28.2,00.0,38.2,31.4,21.9,0000.0,0004.04,0005.67,0003.87
2022-07-31 03:59:00,,0829.5,4.99,0.00,29.5,28.3,00.0,38.3,31.5,22.0,0000.0,0004.06,0005.69,0003.89
